| time (UTC) | temp C | wind direction | speed KPH | gust KPH | rain 1hr cm | rain 24hr cm | rain mn cm | humidity % | barometer mb |
| 20260509160032 | 20 | 235 | 0.0 | 6.4 | 0.00 | 0.00 | 0.00 | 43 | 1017.2 |
| 20260509154527 | 20 | 157 | 0.0 | 4.8 | 0.00 | 0.00 | 0.00 | 45 | 1017.2 |
| 20260509153024 | 18 | 238 | 0.0 | 6.4 | 0.00 | 0.00 | 0.00 | 49 | 1017.2 |
| 20260509151521 | 17 | 166 | 0.0 | 3.2 | 0.00 | 0.00 | 0.00 | 53 | 1017.3 |
| 20260509150016 | 16 | 241 | 0.0 | 1.6 | 0.00 | 0.00 | 0.00 | 64 | 1017.2 |
| 20260509144502 | 13 | 237 | 0.0 | 4.8 | 0.00 | 0.00 | 0.00 | 68 | 1017.1 |
| 20260509143107 | 11 | 207 | 0.0 | 3.2 | 0.00 | 0.00 | 0.00 | 75 | 1017.1 |
| 20260509141553 | 10 | 212 | 0.0 | 3.2 | 0.00 | 0.00 | 0.00 | 77 | 1016.9 |
| 20260509140051 | 9 | 218 | 0.0 | 1.6 | 0.00 | 0.00 | 0.00 | 78 | 1016.9 |
| 20260509134552 | 8 | 225 | 0.0 | 0.0 | 0.00 | 0.00 | 0.00 | 78 | 1016.8 |
| 20260509133050 | -17 | 0.0 | 0.0 | 0.00 | 0.00 | 0.00 | 1016.6 | ||
| 20260509131537 | -17 | 0.0 | 0.0 | 0.00 | 0.00 | 0.00 | 1016.5 | ||
| 20260509130032 | -17 | 0.0 | 0.0 | 0.00 | 0.00 | 0.00 | 1016.4 | ||
| 20260509124513 | 8 | 328 | 4.8 | 6.4 | 0.00 | 0.00 | 0.00 | 74 | 1016.6 |
| 20260509123009 | 9 | 308 | 1.6 | 4.8 | 0.00 | 0.00 | 0.00 | 72 | 1016.6 |
| 20260509121509 | 9 | 102 | 1.6 | 8.0 | 0.00 | 0.00 | 0.00 | 74 | 1016.4 |
| 20260509120101 | 8 | 40 | 3.2 | 11.3 | 0.00 | 0.00 | 0.00 | 75 | 1016.5 |
| 20260509114600 | 8 | 332 | 8.0 | 11.3 | 0.00 | 0.00 | 0.00 | 74 | 1016.3 |
| 20260509113052 | 10 | 297 | 3.2 | 6.4 | 0.00 | 0.00 | 0.00 | 71 | 1016.4 |
| 20260509111547 | 10 | 175 | 1.6 | 8.0 | 0.00 | 0.00 | 0.00 | 70 | 1016.4 |
| 20260509110042 | 11 | 17 | 8.0 | 11.3 | 0.00 | 0.00 | 0.00 | 66 | 1016.2 |
| 20260509104538 | 11 | 252 | 1.6 | 9.7 | 0.00 | 0.00 | 0.00 | 67 | 1016.1 |
| 20260509103019 | 11 | 300 | 9.7 | 14.5 | 0.00 | 0.00 | 0.00 | 65 | 1015.9 |
| 20260509100014 | 11 | 306 | 4.8 | 12.9 | 0.00 | 0.00 | 0.00 | 65 | 1015.7 |
| 20260509094507 | 13 | 309 | 8.0 | 14.5 | 0.00 | 0.00 | 0.00 | 57 | 1015.7 |
| 20260509093002 | 15 | 288 | 4.8 | 22.5 | 0.00 | 0.00 | 0.00 | 51 | 1015.5 |
| 20260509091558 | 15 | 255 | 12.9 | 20.9 | 0.00 | 0.00 | 0.00 | 51 | 1015.5 |
| 20260509090054 | -67 | 351 | 0.0 | 4.8 | 0.00 | 0.00 | 0.00 | 1 | 1015.3 |
| 20260509084553 | -67 | 325 | 0.0 | 1.6 | 0.00 | 0.00 | 0.00 | 1 | 1015.2 |
| 20260509083048 | -67 | 3 | 0.0 | 1.6 | 0.00 | 0.00 | 0.00 | 1 | 1015.2 |
| 20260509081541 | 18 | 104 | 0.0 | 3.2 | 0.00 | 0.00 | 0.00 | 23 | 1015.1 |
| 20260509080040 | 13 | 239 | 0.0 | 0.0 | 0.00 | 0.00 | 0.00 | 47 | 1014.7 |
| 20260509074528 | 13 | 244 | 1.6 | 9.7 | 0.00 | 0.00 | 0.00 | 51 | 1014.8 |
| 20260509073041 | 13 | 228 | 0.0 | 6.4 | 0.00 | 0.00 | 0.00 | 51 | 1014.9 |
| 20260509071521 | 13 | 2 | 0.0 | 3.2 | 0.00 | 0.00 | 0.00 | 51 | 1014.3 |
| 20260509070021 | 13 | 242 | 0.0 | 3.2 | 0.00 | 0.00 | 0.00 | 48 | 1014.2 |
| 20260509064515 | 14 | 198 | 0.0 | 4.8 | 0.00 | 0.00 | 0.00 | 47 | 1013.8 |
| 20260509063014 | 15 | 217 | 0.0 | 8.0 | 0.00 | 0.00 | 0.00 | 46 | 1013.4 |
| 20260509061512 | 15 | 84 | 0.0 | 1.6 | 0.00 | 0.00 | 0.00 | 42 | 1013.6 |
| 20260509060100 | 16 | 183 | 1.6 | 14.5 | 0.00 | 0.00 | 0.00 | 42 | 1013.5 |
| 20260509054605 | 15 | 267 | 3.2 | 6.4 | 0.00 | 0.00 | 0.00 | 42 | 1013.7 |
| 20260509053057 | 15 | 296 | 0.0 | 4.8 | 0.00 | 0.00 | 0.00 | 42 | 1013.4 |
| 20260509051602 | 14 | 86 | 0.0 | 1.6 | 0.00 | 0.00 | 0.00 | 44 | 1013.0 |
| 20260509050053 | 14 | 227 | 0.0 | 3.2 | 0.00 | 0.00 | 0.00 | 43 | 1013.0 |
| 20260509044549 | 15 | 138 | 0.0 | 0.0 | 0.00 | 0.00 | 0.00 | 40 | 1013.0 |
| 20260509043052 | 16 | 240 | 0.0 | 0.0 | 0.00 | 0.00 | 0.00 | 37 | 1012.7 |
| 20260509041539 | 18 | 265 | 0.0 | 3.2 | 0.00 | 0.00 | 0.00 | 34 | 1012.4 |
| 20260509034522 | 18 | 317 | 1.6 | 6.4 | 0.00 | 0.00 | 0.00 | 32 | 1012.0 |
| 20260509033022 | 18 | 333 | 1.6 | 6.4 | 0.00 | 0.00 | 0.00 | 31 | 1011.8 |
| 20260509031518 | 20 | 315 | 3.2 | 8.0 | 0.00 | 0.00 | 0.00 | 28 | 1011.5 |
| 20260509030011 | 20 | 312 | 3.2 | 8.0 | 0.00 | 0.00 | 0.00 | 26 | 1011.2 |
| 20260509024510 | 21 | 308 | 1.6 | 6.4 | 0.00 | 0.00 | 0.00 | 26 | 1010.9 |
| 20260509023005 | 21 | 306 | 1.6 | 4.8 | 0.00 | 0.00 | 0.00 | 24 | 1010.8 |
| 20260509021559 | 22 | 308 | 0.0 | 4.8 | 0.00 | 0.00 | 0.00 | 24 | 1010.5 |
| 20260509020037 | 23 | 322 | 0.0 | 3.2 | 0.00 | 0.00 | 0.00 | 26 | 1010.3 |
| 20260509014535 | 23 | 340 | 0.0 | 4.8 | 0.00 | 0.00 | 0.00 | 24 | 1010.2 |
| 20260509013041 | 24 | 75 | 0.0 | 4.8 | 0.00 | 0.00 | 0.00 | 23 | 1010.1 |
| 20260509011517 | 25 | 306 | 0.0 | 8.0 | 0.00 | 0.00 | 0.00 | 21 | 1010.0 |
| 20260509010017 | 27 | 296 | 0.0 | 4.8 | 0.00 | 0.00 | 0.00 | 18 | 1009.8 |
| 20260509004526 | 27 | 293 | 0.0 | 6.4 | 0.00 | 0.00 | 0.00 | 17 | 1009.8 |
| 20260509003006 | 28 | 280 | 0.0 | 3.2 | 0.00 | 0.00 | 0.00 | 17 | 1009.7 |
| 20260509001503 | 28 | 50 | 0.0 | 9.7 | 0.00 | 0.00 | 0.00 | 17 | 1009.7 |
| 20260509000002 | 28 | 279 | 0.0 | 4.8 | 0.00 | 0.00 | 0.00 | 17 | 1009.7 |
| 20260508234502 | 28 | 163 | 1.6 | 6.4 | 0.00 | 0.00 | 0.00 | 17 | 1009.6 |
| 20260508233110 | 28 | 125 | 1.6 | 9.7 | 0.00 | 0.00 | 0.00 | 16 | 1009.5 |
| 20260508231547 | 28 | 301 | 0.0 | 6.4 | 0.00 | 0.00 | 0.00 | 16 | 1009.7 |
| 20260508230054 | 29 | 119 | 0.0 | 4.8 | 0.00 | 0.00 | 0.00 | 17 | 1009.8 |
| 20260508224542 | 29 | 247 | 0.0 | 4.8 | 0.00 | 0.00 | 0.00 | 16 | 1009.9 |
| 20260508223036 | 29 | 300 | 0.0 | 9.7 | 0.00 | 0.00 | 0.00 | 18 | 1009.9 |
| 20260508221533 | 28 | 239 | 0.0 | 6.4 | 0.00 | 0.00 | 0.00 | 18 | 1009.9 |
| 20260508220028 | 28 | 197 | 0.0 | 11.3 | 0.00 | 0.00 | 0.00 | 18 | 1010.0 |
| 20260508213007 | 28 | 239 | 1.6 | 6.4 | 0.00 | 0.00 | 0.00 | 21 | 1010.1 |
| 20260508211504 | 28 | 201 | 1.6 | 4.8 | 0.00 | 0.00 | 0.00 | 21 | 1010.1 |
| 20260508210121 | 28 | 290 | 0.0 | 6.4 | 0.00 | 0.00 | 0.00 | 22 | 1010.2 |
| 20260508204556 | 27 | 31 | 0.0 | 9.7 | 0.00 | 0.00 | 0.00 | 23 | 1010.3 |
| 20260508203050 | 27 | 336 | 0.0 | 6.4 | 0.00 | 0.00 | 0.00 | 21 | 1010.3 |
| 20260508201546 | 26 | 315 | 0.0 | 3.2 | 0.00 | 0.00 | 0.00 | 23 | 1010.4 |
| 20260508200047 | 26 | 282 | 0.0 | 4.8 | 0.00 | 0.00 | 0.00 | 23 | 1010.5 |
| 20260508194544 | 25 | 340 | 0.0 | 3.2 | 0.00 | 0.00 | 0.00 | 23 | 1010.3 |
| 20260508193020 | 24 | 241 | 0.0 | 8.0 | 0.00 | 0.00 | 0.00 | 23 | 1010.4 |
| 20260508191518 | 25 | 205 | 9.7 | 20.9 | 0.00 | 0.00 | 0.00 | 21 | 1010.3 |
| 20260508190011 | 25 | 37 | 0.0 | 4.8 | 0.00 | 0.00 | 0.00 | 23 | 1010.5 |
| 20260508184506 | 25 | 252 | 3.2 | 12.9 | 0.00 | 0.00 | 0.00 | 24 | 1010.6 |
| 20260508183005 | 25 | 52 | 0.0 | 11.3 | 0.00 | 0.00 | 0.00 | 25 | 1010.8 |
| 20260508181607 | 23 | 341 | 0.0 | 6.4 | 0.00 | 0.00 | 0.00 | 28 | 1010.8 |
| 20260508180053 | 21 | 205 | 1.6 | 14.5 | 0.00 | 0.00 | 0.00 | 31 | 1010.8 |
| 20260508174548 | 21 | 210 | 8.0 | 17.7 | 0.00 | 0.00 | 0.00 | 30 | 1010.9 |
| 20260508173036 | 21 | 214 | 8.0 | 17.7 | 0.00 | 0.00 | 0.00 | 31 | 1010.9 |
| 20260508171528 | 20 | 238 | 0.0 | 3.2 | 0.00 | 0.00 | 0.00 | 37 | 1011.0 |
| 20260508170032 | 20 | 219 | 0.0 | 3.2 | 0.00 | 0.00 | 0.00 | 37 | 1010.9 |
| 20260508164519 | 20 | 238 | 0.0 | 9.7 | 0.00 | 0.00 | 0.00 | 39 | 1010.9 |
| 20260508163015 | 19 | 329 | 0.0 | 3.2 | 0.00 | 0.00 | 0.00 | 41 | 1010.7 |
| 20260508161510 | 18 | 292 | 0.0 | 3.2 | 0.00 | 0.00 | 0.00 | 40 | 1010.7 |